[[{"header":{"parameterUnit":"m.s-1","parameterCategory":1,"la1":30.2991,"la2":30.254,"lo1":-89.0895,"lo2":-89.0444,"dy":0.0017,"dx":0.0017,"nx":28,"ny":28,"refTime":"2024-06-01T21:00:00:Z","depth":0,"parameterNumber":2,"parameterNumberName":"U-component_of_WINDS"},"data":[0,0,0,0,0,0,0,0,0,0,0,0,0,0,0,0,0,0,0,0,0,0,0,0,0,0,0,0,0,0,0,0,0,0,0,0,0,0,0,0,0,0,0,0,0,0,0,0,0,0,0,0,0,0,0,0,0,0,0.5362,0.5362,0,0.5404,0.5404,0.5405,0.5406,0.5405,0.5405,0.5404,0.5441,0.5442,0.5444,0,0,0,0,0,0,0,0,0,0,0,0,0,0.5282,0.5283,0.5362,0.5362,0.5363,0.5404,0.5404,0.5405,0.5406,0.5405,0.5405,0.5404,0.544,0.5442,0.5444,0,0,0,0,0,0,0,0,0,0,0,0,0,0.5319,0.5284,0.5362,0.5369,0.537,0.5403,0.5404,0.5405,0.5406,0.5405,0.5405,0.5404,0.544,0.5442,0.5444,0.5472,0,0,0.5451,0.5451,0,0,0,0,0,0,0,0,0.5317,0.5322,0.5367,0.5368,0.537,0.5399,0.5389,0.5427,0.5406,0.5392,0.5404,0.5404,0.5427,0.543,0.5439,0.5474,0.5475,0.5451,0.5452,0.5453,0.5454,0,0,0,0,0,0,0,0.5314,0.532,0.5378,0.5368,0.5369,0.5369,0.5374,0.5396,0.5413,0.5393,0.5393,0.5399,0.5427,0.5437,0.544,0.5476,0.5451,0.5453,0.5454,0.5455,0.554,0.5541,0,0,0,0,0,0,0.5311,0.5318,0.5377,0.5379,0.5341,0.5371,0.5376,0.539,0.5413,0.5416,0.5399,0.5399,0.5434,0.5438,0.5442,0.548,0.5453,0.5455,0.5456,0.5539,0.5541,0.5542,0,0,0,0,0,0,0.5309,0.5316,0.5375,0.5349,0.5357,0.5373,0.5389,0.5391,0.5401,0.5417,0.542,0.5407,0.5434,0.5439,0.5466,0.5481,0.5456,0.5458,0.5538,0.554,0.5541,0.5554,0,0,0,0,0,0,0.5307,0.5316,0.5326,0.5349,0.5358,0.54,0.539,0.5393,0.5406,0.5405,0.5425,0.5427,0.5433,0.5463,0.5468,0.5483,0.5459,0.5537,0.5539,0.5541,0.5552,0.5555,0.5558,0,0,0,0,0,0.5304,0.5325,0.5327,0.5334,0.5372,0.54,0.5405,0.5414,0.5407,0.5418,0.543,0.5427,0.5478,0.5466,0.5472,0.5488,0.5536,0.5538,0.5541,0.5551,0.5555,0.5558,0,0,0,0,0,0,0.53,0.5328,0.533,0.536,0.5378,0.5401,0.5415,0.5417,0.5435,0.5434,0.5442,0.5446,0.5475,0.5483,0.5469,0.5519,0.5506,0.551,0.5512,0.5516,0.5519,0.5517,0.5461,0,0,0,0,0,0.5303,0.5325,0.5348,0.5372,0.5382,0.5397,0.5409,0.5415,0.5433,0.544,0.5453,0.547,0.5491,0.5503,0.5522,0.5553,0.5559,0.5568,0.5571,0.5573,0.5576,0.5598,0.5603,0.5549,0.5549,0.5549,0,0,0.5308,0.5327,0.5339,0.5372,0.5387,0.541,0.5403,0.5426,0.5443,0.5443,0.5472,0.5482,0.5501,0.5532,0.5546,0.554,0.5593,0.5576,0.5578,0.558,0.5601,0.5606,0.5611,0.5551,0.555,0.555,0,0,0.5331,0.5346,0.537,0.5387,0.5411,0.5422,0.5428,0.5452,0.546,0.549,0.5492,0.5512,0.5545,0.5561,0.5573,0.5608,0.5608,0.5614,0.563,0.5651,0.5656,0.5659,0.5675,0.568,0.5617,0.5617,0.5617,0,0.5333,0.5369,0.5381,0.5407,0.5422,0.5428,0.5453,0.5468,0.5496,0.5507,0.55,0.5548,0.556,0.5597,0.5607,0.5615,0.5624,0.5612,0.5654,0.5658,0.5662,0.5677,0.5683,0.5618,0.5618,0.5617,0.5617,0,0.5374,0.5399,0.5415,0.5448,0.5465,0.549,0.5506,0.5522,0.5528,0.554,0.5572,0.5589,0.5614,0.5623,0.5626,0.5662,0.5658,0.5653,0.5641,0.5668,0.5683,0.5688,0.5619,0.5619,0.5618,0.5618,0,0,0.539,0.5434,0.544,0.5458,0.5488,0.5507,0.5534,0.5562,0.5577,0.5597,0.5621,0.5653,0.5651,0.5665,0.567,0.5689,0.5721,0.5682,0.5683,0.5691,0.5765,0.577,0.5777,0.5721,0.5722,0.5722,0.5765,0,0.5418,0.5468,0.5483,0.5525,0.555,0.5558,0.5582,0.5604,0.5617,0.564,0.5653,0.5677,0.567,0.568,0.5698,0.5713,0.5736,0.571,0.5743,0.5745,0.574,0.5784,0.5788,0.5827,0.577,0.5771,0.5772,0,0.5455,0.5483,0.5528,0.5561,0.5572,0.5594,0.5624,0.5646,0.5671,0.568,0.5699,0.5705,0.5734,0.5721,0.5763,0.5745,0.576,0.5769,0.5771,0.5775,0.576,0.5791,0.5839,0.5845,0.578,0.5779,0.5779,0,0.5467,0.5514,0.555,0.5563,0.5601,0.5617,0.5633,0.5659,0.5677,0.5703,0.5715,0.5742,0.5758,0.5779,0.5793,0.5781,0.5835,0.5821,0.5844,0.5844,0.5854,0.5854,0.5907,0.5861,0.5861,0.5861,0.5861,0,0.5497,0.5525,0.5557,0.5578,0.5611,0.5629,0.5661,0.5677,0.5701,0.5726,0.5733,0.5757,0.5773,0.5799,0.5809,0.5845,0.585,0.5859,0.5862,0.5859,0.5859,0.587,0.5868,0.5862,0.5862,0.5862,0.5861,0,0.5515,0.5536,0.5576,0.5612,0.5622,0.5645,0.5675,0.5697,0.5713,0.5745,0.5753,0.5777,0.5809,0.5825,0.5862,0.587,0.5911,0.5911,0.5904,0.5905,0.5928,0.5926,0.5991,0.6002,0.5947,0.5947,0.5947,0,0.5533,0.5556,0.5596,0.5616,0.5634,0.5664,0.5685,0.5704,0.5724,0.5759,0.5778,0.5811,0.5838,0.5889,0.5908,0.5939,0.5941,0.5962,0.5945,0.5944,0.5945,0.5944,0.5948,0.5965,0.5965,0.5966,0.5966,0,0.5563,0.5575,0.5605,0.5642,0.5667,0.5695,0.5723,0.5738,0.5762,0.5785,0.582,0.5842,0.5885,0.5918,0.5952,0.5967,0.5972,0.5972,0.5979,0.5977,0.5974,0.598,0.5914,0.597,0.5969,0.5969,0.5969,0.5969,0.5583,0.5607,0.5641,0.5676,0.5701,0.5728,0.5753,0.5775,0.5805,0.5844,0.5853,0.5891,0.592,0.5966,0.5984,0.6014,0.6009,0.6018,0.6021,0.6024,0.6027,0.5969,0.6019,0.6019,0.6019,0.6019,0.6019,0,0.5617,0.5642,0.5674,0.5716,0.5745,0.575,0.5783,0.5807,0.5841,0.587,0.5899,0.5942,0.5976,0.6001,0.6037,0.6056,0.6059,0.6065,0.6064,0.6069,0.6027,0.6019,0.6062,0.6062,0.6062,0.6062,0.6062,0.6062,0.5638,0.568,0.5696,0.5752,0.5775,0.5815,0.5834,0.5861,0.5885,0.5934,0.5964,0.5982,0.601,0.6049,0.6081,0.6088,0.6101,0.6108,0.6115,0.6075,0.6071,0.6066,0.6059,0.611,0.611,0.6154,0.6154,0.6155]},{"header":{"parameterUnit":"m.s-1","parameterCategory":1,"la1":30.2991,"la2":30.254,"lo1":-89.0895,"lo2":-89.0444,"dy":0.0017,"dx":0.0017,"nx":28,"ny":28,"refTime":"2024-06-01T21:00:00:Z","depth":0,"parameterNumber":3,"parameterNumberName":"V-component_of_WINDS"},"data":[0,0,0,0,0,0,0,0,0,0,0,0,0,0,0,0,0,0,0,0,0,0,0,0,0,0,0,0,0,0,0,0,0,0,0,0,0,0,0,0,0,0,0,0,0,0,0,0,0,0,0,0,0,0,0,0,0,0,-2.412,-2.4118,0,-2.3956,-2.3954,-2.3952,-2.3838,-2.3837,-2.3836,-2.3836,-2.3652,-2.3648,-2.3644,0,0,0,0,0,0,0,0,0,0,0,0,0,-2.4318,-2.4315,-2.412,-2.4118,-2.4116,-2.3956,-2.3954,-2.3951,-2.3838,-2.3837,-2.3836,-2.3835,-2.3653,-2.3648,-2.3643,0,0,0,0,0,0,0,0,0,0,0,0,0,-2.42,-2.4314,-2.412,-2.404,-2.4032,-2.3956,-2.3953,-2.3951,-2.3838,-2.3837,-2.3836,-2.3835,-2.3655,-2.3649,-2.3643,-2.3629,0,0,-2.3624,-2.3621,0,0,0,0,0,0,0,0,-2.4207,-2.4193,-2.4054,-2.4046,-2.4036,-2.3916,-2.3956,-2.3842,-2.3839,-2.3911,-2.3836,-2.3834,-2.374,-2.3726,-2.3698,-2.362,-2.3612,-2.3623,-2.3619,-2.3617,-2.3615,0,0,0,0,0,0,0,-2.4216,-2.42,-2.4054,-2.4052,-2.4041,-2.4007,-2.3989,-2.3934,-2.3834,-2.3905,-2.3896,-2.3879,-2.3734,-2.3704,-2.3693,-2.3609,-2.3623,-2.3618,-2.3614,-2.3611,-2.3503,-2.3504,0,0,0,0,0,0,-2.4239,-2.4207,-2.4059,-2.4049,-2.4121,-2.4005,-2.3984,-2.3956,-2.3834,-2.3815,-2.3881,-2.3875,-2.3715,-2.37,-2.3686,-2.3657,-2.3617,-2.3611,-2.3607,-2.3503,-2.3504,-2.3505,0,0,0,0,0,0,-2.4243,-2.4227,-2.4066,-2.4126,-2.4103,-2.4003,-2.3971,-2.3953,-2.3923,-2.3816,-2.3796,-2.3869,-2.3714,-2.3694,-2.3643,-2.3649,-2.3608,-2.3602,-2.3502,-2.3503,-2.3504,-2.3603,0,0,0,0,0,0,-2.425,-2.4229,-2.4227,-2.4127,-2.41,-2.4033,-2.3972,-2.3951,-2.3914,-2.3905,-2.38,-2.3781,-2.3711,-2.3653,-2.3637,-2.364,-2.3597,-2.35,-2.3502,-2.3504,-2.3599,-2.3608,-2.3615,0,0,0,0,0,-2.4257,-2.4259,-2.4228,-2.4211,-2.4097,-2.4033,-2.4017,-2.3942,-2.3916,-2.391,-2.384,-2.3785,-2.3652,-2.3649,-2.363,-2.3631,-2.35,-2.3502,-2.3504,-2.3595,-2.3606,-2.3615,0,0,0,0,0,0,-2.4359,-2.4245,-2.4209,-2.418,-2.4118,-2.4015,-2.4005,-2.3956,-2.3896,-2.3889,-2.3792,-2.3769,-2.3726,-2.3673,-2.3672,-2.3607,-2.3568,-2.3566,-2.3644,-2.3654,-2.3662,-2.3674,-2.3592,0,0,0,0,0,-2.4379,-2.4342,-2.4242,-2.4226,-2.4197,-2.4107,-2.4076,-2.4023,-2.3953,-2.3924,-2.3851,-2.378,-2.372,-2.3684,-2.3625,-2.359,-2.3562,-2.3581,-2.3589,-2.3596,-2.3595,-2.3566,-2.3572,-2.3511,-2.3511,-2.3511,0,0,-2.4418,-2.4351,-2.4333,-2.4245,-2.419,-2.4148,-2.4085,-2.4045,-2.4011,-2.3916,-2.3864,-2.3807,-2.372,-2.3676,-2.3653,-2.363,-2.3605,-2.3599,-2.3605,-2.36,-2.3569,-2.3575,-2.358,-2.3512,-2.3512,-2.3512,0,0,-2.4467,-2.4416,-2.4395,-2.4342,-2.4262,-2.4201,-2.4196,-2.4099,-2.4059,-2.4007,-2.3933,-2.3887,-2.3791,-2.373,-2.3687,-2.371,-2.3654,-2.3692,-2.3734,-2.3708,-2.3712,-2.3716,-2.3719,-2.3722,-2.3692,-2.3692,-2.3692,0,-2.4525,-2.4465,-2.4389,-2.4353,-2.4313,-2.423,-2.4204,-2.4154,-2.4056,-2.4028,-2.4005,-2.3879,-2.3814,-2.3752,-2.3758,-2.3727,-2.3712,-2.3704,-2.3719,-2.3722,-2.3724,-2.3726,-2.3728,-2.3697,-2.3696,-2.3696,-2.3695,0,-2.4537,-2.4496,-2.4488,-2.44,-2.4359,-2.4329,-2.4242,-2.4208,-2.4158,-2.4097,-2.404,-2.396,-2.3881,-2.3862,-2.381,-2.379,-2.3778,-2.3739,-2.3697,-2.3736,-2.3736,-2.3737,-2.3704,-2.3702,-2.3701,-2.37,0,0,-2.4647,-2.4518,-2.4515,-2.4473,-2.4376,-2.434,-2.4301,-2.4229,-2.42,-2.4133,-2.4095,-2.4013,-2.3974,-2.3925,-2.3865,-2.3842,-2.3859,-2.3804,-2.38,-2.3814,-2.3824,-2.3854,-2.3857,-2.3822,-2.3822,-2.3821,-2.383,0,-2.4679,-2.4614,-2.4543,-2.4499,-2.4457,-2.4375,-2.434,-2.4273,-2.4215,-2.4165,-2.4096,-2.4039,-2.3995,-2.3964,-2.3938,-2.3863,-2.3859,-2.3861,-2.3778,-2.3776,-2.3801,-2.3857,-2.3889,-2.3902,-2.383,-2.383,-2.383,0,-2.471,-2.4652,-2.4606,-2.451,-2.4489,-2.4461,-2.4386,-2.4342,-2.4261,-2.4219,-2.4163,-2.41,-2.4047,-2.4012,-2.3934,-2.3938,-2.3898,-2.3855,-2.3853,-2.3841,-2.3805,-2.3843,-2.3905,-2.3906,-2.3831,-2.3831,-2.3831,0,-2.479,-2.47,-2.466,-2.4627,-2.4515,-2.4496,-2.4447,-2.4366,-2.4326,-2.4257,-2.4228,-2.4153,-2.4111,-2.405,-2.3964,-2.3948,-2.3893,-2.3853,-2.3851,-2.3853,-2.3843,-2.3844,-2.3896,-2.3822,-2.3822,-2.3822,-2.3822,0,-2.4833,-2.4807,-2.4695,-2.467,-2.4636,-2.4551,-2.4517,-2.446,-2.4388,-2.4344,-2.4267,-2.4226,-2.4117,-2.4061,-2.3993,-2.3935,-2.3917,-2.3876,-2.3858,-2.3883,-2.3888,-2.3854,-2.385,-2.3822,-2.3822,-2.3822,-2.3822,0,-2.4917,-2.4842,-2.4792,-2.4692,-2.4665,-2.4644,-2.4553,-2.4522,-2.4459,-2.4404,-2.4386,-2.4284,-2.4213,-2.4123,-2.4022,-2.3975,-2.3924,-2.3898,-2.3954,-2.3943,-2.3946,-2.3946,-2.3976,-2.3974,-2.3905,-2.3905,-2.3906,0,-2.4949,-2.4927,-2.4825,-2.4794,-2.4749,-2.4699,-2.4658,-2.4571,-2.4529,-2.4434,-2.4412,-2.4338,-2.4273,-2.4162,-2.4074,-2.3995,-2.3963,-2.3979,-2.3951,-2.3974,-2.3959,-2.3961,-2.3955,-2.3986,-2.3988,-2.3989,-2.399,0,-2.5011,-2.4974,-2.4922,-2.4855,-2.481,-2.4752,-2.4689,-2.4665,-2.4563,-2.452,-2.4451,-2.4401,-2.4299,-2.4223,-2.4132,-2.4072,-2.4011,-2.4,-2.3994,-2.4018,-2.405,-2.4029,-2.3971,-2.3999,-2.3998,-2.3997,-2.3997,-2.3996,-2.5066,-2.5043,-2.4967,-2.4909,-2.4854,-2.4797,-2.4762,-2.4695,-2.4638,-2.4553,-2.4503,-2.4434,-2.4345,-2.4218,-2.4161,-2.4099,-2.4077,-2.407,-2.4068,-2.4067,-2.4073,-2.4062,-2.4082,-2.4082,-2.4081,-2.4081,-2.4081,0,-2.5122,-2.507,-2.5018,-2.4935,-2.4888,-2.4842,-2.4769,-2.473,-2.4673,-2.46,-2.4539,-2.4455,-2.4379,-2.4285,-2.4201,-2.4169,-2.4139,-2.415,-2.415,-2.4136,-2.41,-2.4112,-2.4176,-2.4176,-2.4176,-2.4176,-2.4176,-2.4176,-2.5145,-2.5102,-2.5056,-2.498,-2.4925,-2.4863,-2.4824,-2.4768,-2.4709,-2.4622,-2.4562,-2.4503,-2.4418,-2.4327,-2.4252,-2.4225,-2.4196,-2.4215,-2.4179,-2.4147,-2.4139,-2.4131,-2.4141,-2.421,-2.421,-2.4219,-2.4219,-2.4219]}]]